SCP
0 0 0 0 0 0 0 0 0 0 0 0 0 0 0 0 0 0 0 1 1 1 2 3 3 4 4 4 3 3 4 5 3 2 2 2 1 1 0 0 0 0 0 0
0 0 0 0 0 0 0 0 0 0 0 0 0 0 0 0 0 0 0 0 1 1 1 2 3 3 4 3 3 3 4 4 4 2 2 1 1 1 1 0 0 0 0 0
0 0 0 0 0 0 0 0 0 0 0 0 0 0 0 0 0 0 0 0 0 1 1 1 2 3 3 3 2 2 3 4 3 2 1 1 1 1 1 1 0 0 0 0
0 0 0 0 0 0 0 0 0 0 0 0 0 0 0 0 0 0 0 0 0 0 1 1 1 2 2 2 2 2 2 3 3 3 2 1 1 1 1 0 0 0 0 0
0 0 0 0 0 0 0 0 0 0 0 0 0 0 0 0 0 0 0 0 0 0 0 1 1 1 2 2 2 2 2 2 3 3 2 1 1 1 0 0 0 0 0 0
0 0 0 0 0 0 0 0 0 0 0 0 0 0 0 0 0 0 0 0 0 0 0 1 1 1 2 2 2 2 2 2 2 3 2 1 1 1 0 0 0 0 0 0
0 0 0 0 0 0 0 0 0 0 0 0 0 0 0 0 0 0 0 0 0 0 1 1 2 2 2 2 2 2 2 1 2 2 2 1 1 1 0 0 0 0 0 0
0 0 0 0 0 0 0 0 0 0 0 0 0 0 0 0 0 0 0 0 0 0 1 2 2 2 2 1 1 1 1 1 1 2 2 1 1 1 0 0 0 0 0 0
0 0 0 0 0 0 0 0 0 0 0 0 0 0 0 0 0 0 0 0 0 0 1 1 2 1 1 1 1 1 1 1 1 1 1 1 1 0 0 0 0 0 0 0
0 0 0 0 0 0 0 0 0 0 0 0 0 0 0 0 0 0 0 0 0 0 0 0 1 1 1 0 0 0 0 1 1 1 1 1 1 1 0 0 0 0 0 0
0 0 0 0 0 0 0 0 0 0 0 0 0 0 0 0 0 0 0 0 0 0 0 0 0 0 0 0 0 0 0 0 0 1 1 1 1 1 1 0 0 0 0 0
0 0 0 0 0 0 0 0 0 0 0 0 0 0 0 0 0 0 0 0 0 0 0 0 0 0 0 0 0 0 0 0 0 0 1 1 1 1 1 1 0 0 0 0
0 0 0 0 0 0 0 0 0 0 0 0 0 0 0 0 0 0 0 0 0 0 0 0 0 0 0 0 0 0 0 0 0 0 0 0 0 0 1 0 0 0 0 0
0 0 0 0 0 0 0 0 0 0 0 0 0 0 0 0 0 0 0 0 0 0 0 0 0 0 0 0 0 0 0 0 0 0 0 0 0 0 0 0 0 0 0 0
0 0 0 0 0 0 0 0 0 0 0 0 0 0 0 0 0 0 0 0 0 0 0 0 0 0 0 0 0 0 0 0 0 0 0 0 0 0 0 0 0 0 0 0
0 0 0 0 0 0 0 0 0 0 0 0 0 0 0 0 0 0 0 0 0 0 0 0 0 0 0 0 0 0 0 0 0 0 0 0 0 0 0 0 0 0 0 0
0 0 0 0 0 0 0 0 0 0 0 0 0 0 0 0 0 0 0 0 0 0 0 0 0 0 0 0 0 0 0 0 0 0 0 0 0 0 0 0 0 0 0 0
0 0 0 0 0 0 0 0 0 0 0 0 0 0 0 0 0 0 0 0 0 0 0 0 0 0 0 0 0 0 0 0 0 0 0 0 0 0 0 0 0 0 0 0
0 0 0 0 0 0 0 0 0 0 0 0 0 0 0 0 0 0 0 0 0 0 0 0 0 0 0 0 0 0 0 0 0 0 0 0 0 0 0 0 0 0 0 0
0 0 0 0 0 0 0 0 0 0 0 0 0 0 0 0 0 0 0 0 0 0 0 0 0 0 0 0 0 0 0 0 0 0 0 0 0 0 0 0 0 0 0 0
0 0 0 0 0 0 0 0 0 0 0 0 0 0 0 0 0 0 0 0 0 0 0 0 0 0 0 0 0 0 0 0 0 0 0 0 0 0 0 0 0 0 0 0
0 0 0 0 0 0 0 0 0 0 0 0 0 0 0 0 0 0 0 0 0 0 0 0 0 0 0 0 0 0 0 0 0 0 0 0 0 0 0 0 0 0 0 0
0 0 0 0 0 0 0 0 0 0 0 0 0 0 0 0 0 0 0 0 0 0 0 0 0 0 0 0 0 0 0 0 0 0 0 0 0 0 0 0 0 0 0 0
0 0 0 0 0 0 0 0 0 0 0 0 0 0 0 0 0 0 0 0 0 0 0 0 0 0 0 0 0 0 0 0 0 0 0 0 0 0 0 0 0 0 0 0
0 0 0 0 0 0 0 0 0 0 0 0 0 0 0 0 0 0 0 0 0 0 0 0 0 0 0 0 0 0 0 0 0 0 0 0 0 0 0 0 0 0 0 0
0 0 0 0 0 0 0 0 0 0 0 0 0 0 0 0 0 0 0 0 0 0 0 0 0 0 0 0 0 0 0 0 0 0 0 0 0 0 0 0 0 0 0 0
Wind_Speed
1 2 4 6 7 4 4 4 6 7 5 4 7 9 9 6 5 6 7 7 8 9 7 6 7 7 8 8 8 9 10 9 8 7 6 5 4 4 3 3 5 5 5 5
1 4 6 5 5 4 3 3 5 5 4 3 5 9 8 6 7 8 9 10 9 7 4 6 7 7 9 9 9 9 10 10 9 7 5 4 4 3 3 3 3 4 5 5
4 4 3 3 4 4 4 5 5 4 4 2 1 6 7 6 5 6 7 8 8 9 9 9 8 8 8 9 10 10 10 10 9 8 6 5 4 3 2 3 3 3 5 5
3 3 2 3 5 3 6 5 4 3 1 3 3 4 6 5 5 6 6 5 6 7 7 8 9 9 9 9 9 9 10 10 9 9 9 10 7 6 5 4 3 3 4 5
3 2 2 4 5 4 5 4 3 3 2 2 2 3 7 3 4 6 5 4 4 5 6 7 8 9 8 8 8 8 9 9 9 9 10 9 6 4 3 4 4 3 3 4
3 2 2 4 4 4 2 1 2 2 1 3 5 4 6 3 5 5 4 3 3 4 5 5 4 4 5 6 6 7 9 8 8 9 8 9 9 8 7 6 5 4 2 2
4 3 2 1 1 1 2 3 2 0 2 5 3 4 6 4 3 3 3 2 2 3 4 4 3 3 4 6 6 7 9 8 8 8 8 8 9 9 9 8 6 5 3 3
1 4 3 1 2 2 3 4 5 4 4 3 1 5 4 4 4 3 2 1 1 1 2 3 3 4 4 5 6 7 8 8 8 8 8 7 7 6 5 6 5 5 4 4
1 5 3 2 1 2 2 3 3 3 1 1 3 4 4 5 7 6 6 6 4 2 1 1 2 2 3 4 5 7 7 6 7 7 7 7 6 6 6 5 4 4 3 3
2 4 5 3 2 1 2 3 2 2 3 2 3 3 3 6 6 6 5 5 4 4 3 2 1 1 2 3 4 5 6 6 6 5 6 6 6 6 6 6 5 4 4 4
1 1 4 2 1 2 1 1 1 2 2 3 2 4 2 3 4 3 4 4 4 4 3 2 2 2 2 3 4 4 4 5 5 5 5 5 5 5 5 5 5 5 4 4
1 1 2 3 3 0 1 1 1 2 2 1 2 4 3 2 3 3 4 5 5 5 5 4 3 4 4 4 3 3 3 4 4 4 5 5 5 5 5 5 4 4 4 4
2 1 1 4 3 4 2 2 1 1 1 1 2 5 4 4 5 4 4 5 5 5 6 5 5 5 4 3 3 3 3 3 3 4 5 5 5 5 5 4 4 4 4 3
2 1 2 4 3 1 3 4 1 1 1 2 4 5 6 7 6 6 5 4 4 5 5 5 5 4 4 3 2 3 3 3 4 4 5 5 5 4 4 4 4 3 3 3
3 0 2 3 3 1 2 4 2 1 3 4 4 4 5 5 4 4 4 4 4 5 5 4 4 4 3 3 3 2 3 3 4 5 4 4 4 4 4 4 3 3 3 2
2 1 2 3 2 0 3 5 4 3 2 3 3 5 5 4 3 3 3 2 3 3 4 3 3 4 3 2 2 2 2 3 4 5 4 4 4 4 4 3 3 3 2 2
1 0 1 3 4 3 4 5 4 3 2 3 5 5 3 3 4 3 2 2 2 2 3 2 2 2 2 2 2 2 2 3 4 4 4 4 4 4 3 3 3 3 2 2
2 1 1 1 3 2 5 2 2 2 2 2 3 3 2 2 3 2 2 2 3 3 2 1 1 1 2 2 2 2 3 4 4 4 4 3 4 4 3 3 3 2 2 2
3 3 1 1 1 5 5 3 2 2 3 2 2 3 3 3 3 3 3 3 2 2 2 1 0 0 1 2 2 4 3 4 4 4 3 3 3 3 3 3 2 2 2 1
2 2 2 2 2 5 5 5 3 0 3 3 2 2 3 2 1 4 5 4 4 3 2 2 1 2 2 2 2 4 3 3 3 2 2 2 3 3 3 2 2 1 2 1
2 1 1 2 3 6 5 6 2 2 4 3 2 2 2 1 3 3 4 4 3 3 3 2 2 2 2 1 3 3 3 2 1 2 3 3 2 2 2 2 2 2 2 1
3 2 2 2 3 7 3 1 1 4 2 2 2 1 1 1 2 2 3 3 3 3 3 3 2 3 2 2 3 3 2 1 2 3 3 3 2 2 2 2 2 1 2 1
4 5 4 5 6 4 2 2 3 2 2 3 2 2 1 1 1 2 2 2 3 3 3 2 2 3 3 2 2 2 1 1 2 3 3 2 2 2 2 2 2 1 1 1
3 2 2 3 6 5 4 3 3 2 2 3 2 2 1 1 1 2 1 2 2 2 2 2 2 2 2 3 2 1 1 2 2 2 2 2 2 1 1 1 1 1 1 1
5 2 2 5 5 5 5 4 3 2 2 2 2 2 2 2 2 2 2 2 2 2 2 1 1 1 2 2 2 2 2 2 2 2 2 2 1 1 1 1 0 0 1 2
4 5 5 7 6 4 5 4 3 3 3 3 2 2 2 2 2 2 2 2 1 2 1 1 1 1 1 2 2 2 2 2 2 2 1 1 1 1 0 0 1 1 1 2
Wind_Direction
116 139 210 217 205 213 204 214 245 249 242 216 234 253 262 256 230 229 228 224 221 221 216 198 187 175 166 164 164 165 163 164 158 155 155 156 161 160 154 156 152 151 146 144
83 231 233 235 227 225 227 232 246 265 257 224 242 258 260 253 233 221 219 221 220 216 205 193 185 177 173 171 170 168 166 166 167 166 163 158 150 153 152 149 149 153 149 148
203 235 224 230 226 222 239 223 228 249 306 266 231 278 259 269 255 244 226 215 210 203 197 192 184 184 177 176 177 175 172 168 165 156 143 130 114 107 122 148 157 163 155 150
252 253 210 223 226 209 242 229 231 242 242 257 173 256 267 251 264 258 247 228 212 208 199 189 185 183 185 187 182 175 171 166 163 159 158 159 163 169 180 173 165 159 158 154
261 243 218 233 233 218 237 246 238 232 207 273 220 212 279 281 262 267 257 238 220 207 196 190 191 189 186 181 178 175 168 167 165 165 164 164 164 165 149 146 145 150 153 156
273 282 231 241 253 223 248 27 28 40 111 237 218 193 274 263 247 268 269 255 222 207 196 186 181 175 173 172 171 170 166 168 166 165 164 167 165 161 156 161 163 164 158 157
322 300 291 278 289 283 108 104 82 2 222 239 189 191 251 286 291 264 262 259 226 196 182 163 153 152 163 167 171 171 168 169 169 168 169 173 171 169 171 172 172 168 169 174
341 290 275 261 211 223 211 164 166 190 209 263 192 221 257 319 337 348 359 14 50 71 144 153 160 163 169 173 170 167 170 170 170 172 174 173 170 171 174 173 169 173 177 179
280 273 291 276 261 165 177 199 196 157 213 222 243 274 301 347 2 14 17 23 26 27 66 119 129 133 148 163 166 166 164 164 167 171 166 165 166 164 162 158 156 158 162 159
238 272 297 301 8 345 176 176 126 144 163 225 257 243 275 323 333 356 8 7 360 17 33 30 49 87 119 144 143 144 149 157 157 155 162 160 161 159 154 147 153 158 161 158
274 247 305 346 183 221 55 148 152 166 170 169 208 255 302 298 311 336 348 358 4 21 29 27 28 50 74 92 102 113 125 128 137 145 144 140 147 148 150 154 160 160 154 158
305 155 277 277 286 252 130 176 159 165 236 199 179 264 335 346 2 20 11 8 15 23 24 26 35 52 65 78 94 104 111 119 130 133 134 137 137 139 143 150 157 154 153 157
356 57 0 342 344 11 30 4 31 95 116 188 196 264 338 3 12 18 19 14 17 24 27 29 33 43 50 62 82 98 103 107 108 118 123 123 127 131 138 146 146 145 145 147
33 71 180 210 236 287 298 310 330 101 170 221 234 260 315 339 349 352 7 12 13 20 25 29 30 30 36 48 69 93 94 102 107 108 115 117 119 122 128 131 137 140 145 151
58 13 251 258 262 260 305 301 305 240 206 206 243 258 287 310 315 323 344 1 12 17 18 27 27 22 26 38 51 75 83 90 105 106 106 111 111 108 104 103 112 125 137 140
26 270 298 293 278 279 326 316 283 254 238 224 254 279 291 310 332 342 340 353 7 0 2 11 22 19 15 38 64 81 85 88 104 109 107 104 103 101 100 101 103 99 99 112
303 84 356 293 317 354 304 281 250 225 221 208 238 259 298 337 338 324 324 349 335 332 347 1 7 9 6 27 82 97 100 97 100 102 100 99 101 98 95 97 93 92 83 76
201 158 170 313 25 245 247 286 259 234 256 242 249 286 308 307 308 315 329 336 332 337 340 351 352 2 16 45 78 93 98 100 100 98 98 102 104 103 99 95 90 81 79 81
197 170 145 129 246 279 291 307 312 256 285 311 276 298 316 327 341 337 347 340 318 318 323 314 346 33 44 62 88 96 92 95 98 101 102 105 111 113 108 101 95 94 93 78
64 117 134 140 176 247 265 294 303 235 288 320 332 310 313 340 327 301 335 344 345 358 7 11 38 65 66 54 92 98 94 93 101 110 106 101 106 115 116 111 98 90 99 99
9 16 186 199 226 264 275 298 333 166 256 305 310 313 315 281 253 283 328 345 358 5 7 19 53 63 48 54 89 96 94 97 107 101 99 95 98 108 113 102 94 99 97 85
196 194 209 179 210 256 297 27 172 230 267 294 289 285 297 294 313 329 343 355 2 8 10 27 53 45 34 53 96 100 94 82 86 92 93 90 88 93 99 101 91 93 112 107
208 201 198 200 222 251 271 222 254 254 266 279 270 272 254 282 306 325 338 356 358 2 4 26 57 48 33 40 84 106 75 81 96 101 96 86 78 70 86 113 119 109 111 126
274 230 205 253 267 275 284 284 294 285 277 287 280 268 251 255 267 298 326 352 359 2 9 24 53 46 27 32 53 61 49 69 95 105 104 99 93 76 61 72 100 123 154 191
243 220 234 257 276 294 284 279 276 290 306 307 303 282 245 228 249 268 295 319 338 351 356 20 51 38 16 27 37 33 37 72 90 92 90 94 94 98 72 51 59 172 231 233
221 202 209 240 246 242 268 279 274 277 277 271 273 284 278 243 247 270 293 312 324 331 343 15 28 33 13 22 21 17 31 74 102 95 88 90 111 113 117 63 11 10 332 325